| time (UTC) | temp C | wind direction | speed KPH | gust KPH | rain 1hr cm | rain 24hr cm | rain mn cm | humidity % | barometer mb |
| 20260506051004 | 18 | 186 | 1.6 | 6.4 | 0.00 | 0.00 | 0.00 | 94 | 1014.7 |
| 20260506050507 | 18 | 193 | 1.6 | 4.8 | 0.00 | 0.00 | 0.00 | 94 | 1014.7 |
| 20260506045003 | 18 | 191 | 0.0 | 0.0 | 0.00 | 0.00 | 0.00 | 93 | 1015.0 |
| 20260506044516 | 18 | 159 | 0.0 | 0.0 | 0.00 | 0.00 | 0.00 | 92 | 1015.0 |
| 20260506044004 | 18 | 178 | 0.0 | 0.0 | 0.00 | 0.00 | 0.00 | 91 | 1015.1 |
| 20260506043505 | 18 | 178 | 0.0 | 0.0 | 0.00 | 0.00 | 0.00 | 92 | 1015.3 |
| 20260506043015 | 18 | 178 | 0.0 | 3.2 | 0.00 | 0.00 | 0.00 | 92 | 1015.3 |
| 20260506042505 | 18 | 178 | 0.0 | 3.2 | 0.00 | 0.00 | 0.00 | 91 | 1015.4 |
| 20260506042009 | 18 | 178 | 0.0 | 1.6 | 0.00 | 0.00 | 0.00 | 90 | 1015.5 |
| 20260506041514 | 18 | 182 | 0.0 | 0.0 | 0.00 | 0.00 | 0.00 | 90 | 1015.6 |
| 20260506041007 | 18 | 182 | 0.0 | 0.0 | 0.00 | 0.00 | 0.00 | 90 | 1015.5 |
| 20260506040503 | 18 | 182 | 0.0 | 0.0 | 0.00 | 0.00 | 0.00 | 90 | 1015.6 |
| 20260506040016 | 18 | 183 | 0.0 | 0.0 | 0.00 | 0.00 | 0.00 | 89 | 1015.5 |
| 20260506035503 | 18 | 196 | 0.0 | 0.0 | 0.00 | 0.00 | 0.00 | 89 | 1015.7 |
| 20260506035009 | 18 | 196 | 0.0 | 0.0 | 0.00 | 0.00 | 0.00 | 89 | 1015.7 |
| 20260506034515 | 18 | 180 | 0.0 | 0.0 | 0.00 | 0.00 | 0.00 | 89 | 1015.7 |
| 20260506034004 | 18 | 180 | 0.0 | 0.0 | 0.00 | 0.00 | 0.00 | 90 | 1015.5 |
| 20260506033507 | 18 | 172 | 0.0 | 0.0 | 0.00 | 0.00 | 0.00 | 90 | 1015.3 |
| 20260506033026 | 18 | 146 | 0.0 | 0.0 | 0.00 | 0.00 | 0.00 | 90 | 1015.4 |
| 20260506032504 | 18 | 196 | 0.0 | 0.0 | 0.00 | 0.00 | 0.00 | 89 | 1015.6 |
| 20260506032005 | 18 | 196 | 0.0 | 0.0 | 0.00 | 0.00 | 0.00 | 89 | 1015.5 |
| 20260506031523 | 18 | 196 | 0.0 | 0.0 | 0.00 | 0.00 | 0.00 | 88 | 1015.4 |
| 20260506031004 | 18 | 196 | 0.0 | 0.0 | 0.00 | 0.00 | 0.00 | 88 | 1015.5 |
| 20260506030506 | 18 | 196 | 0.0 | 0.0 | 0.00 | 0.00 | 0.00 | 88 | 1015.5 |
| 20260506030014 | 18 | 196 | 0.0 | 0.0 | 0.00 | 0.00 | 0.00 | 87 | 1015.4 |
| 20260506025504 | 18 | 196 | 0.0 | 0.0 | 0.00 | 0.00 | 0.00 | 87 | 1015.4 |
| 20260506025003 | 19 | 196 | 0.0 | 0.0 | 0.00 | 0.00 | 0.00 | 88 | 1015.3 |
| 20260506024524 | 19 | 196 | 0.0 | 0.0 | 0.00 | 0.00 | 0.00 | 87 | 1015.3 |
| 20260506024003 | 19 | 201 | 0.0 | 0.0 | 0.00 | 0.00 | 0.00 | 87 | 1015.2 |
| 20260506023503 | 19 | 201 | 0.0 | 0.0 | 0.00 | 0.00 | 0.00 | 86 | 1015.2 |
| 20260506023015 | 19 | 201 | 0.0 | 0.0 | 0.00 | 0.00 | 0.00 | 86 | 1015.1 |
| 20260506022507 | 19 | 201 | 0.0 | 0.0 | 0.00 | 0.00 | 0.00 | 86 | 1015.2 |
| 20260506022011 | 20 | 201 | 0.0 | 0.0 | 0.00 | 0.00 | 0.00 | 85 | 1015.2 |
| 20260506021516 | 20 | 201 | 0.0 | 0.0 | 0.00 | 0.00 | 0.00 | 85 | 1015.2 |
| 20260506021003 | 20 | 201 | 0.0 | 0.0 | 0.00 | 0.00 | 0.00 | 84 | 1015.2 |
| 20260506020504 | 20 | 201 | 0.0 | 0.0 | 0.00 | 0.00 | 0.00 | 84 | 1015.2 |
| 20260506020017 | 20 | 201 | 0.0 | 0.0 | 0.00 | 0.00 | 0.00 | 83 | 1015.2 |
| 20260506015504 | 20 | 201 | 0.0 | 0.0 | 0.00 | 0.00 | 0.00 | 82 | 1015.3 |
| 20260506015005 | 20 | 201 | 0.0 | 0.0 | 0.00 | 0.00 | 0.00 | 82 | 1015.3 |
| 20260506014518 | 21 | 201 | 0.0 | 0.0 | 0.00 | 0.00 | 0.00 | 81 | 1015.3 |
| 20260506014005 | 21 | 201 | 0.0 | 0.0 | 0.00 | 0.00 | 0.00 | 80 | 1015.2 |
| 20260506013508 | 21 | 201 | 0.0 | 0.0 | 0.00 | 0.00 | 0.00 | 80 | 1015.2 |
| 20260506013020 | 21 | 201 | 0.0 | 0.0 | 0.00 | 0.00 | 0.00 | 79 | 1015.1 |
| 20260506012505 | 21 | 201 | 0.0 | 0.0 | 0.00 | 0.00 | 0.00 | 78 | 1015.0 |
| 20260506012010 | 21 | 201 | 0.0 | 0.0 | 0.00 | 0.00 | 0.00 | 78 | 1014.9 |
| 20260506011520 | 21 | 200 | 0.0 | 0.0 | 0.00 | 0.00 | 0.00 | 77 | 1014.7 |
| 20260506011006 | 22 | 241 | 0.0 | 3.2 | 0.00 | 0.00 | 0.00 | 77 | 1014.7 |
| 20260506010506 | 22 | 241 | 0.0 | 3.2 | 0.00 | 0.00 | 0.00 | 77 | 1014.7 |
| 20260506010044 | 22 | 188 | 0.0 | 3.2 | 0.00 | 0.00 | 0.00 | 76 | 1014.4 |
| 20260506005506 | 22 | 190 | 0.0 | 0.0 | 0.00 | 0.00 | 0.00 | 75 | 1014.4 |
| 20260506005007 | 22 | 200 | 0.0 | 0.0 | 0.00 | 0.00 | 0.00 | 74 | 1014.5 |
| 20260506004510 | 22 | 194 | 0.0 | 4.8 | 0.00 | 0.00 | 0.00 | 74 | 1014.5 |
| 20260506004002 | 22 | 118 | 0.0 | 4.8 | 0.00 | 0.00 | 0.00 | 73 | 1014.3 |
| 20260506003502 | 22 | 53 | 1.6 | 4.8 | 0.00 | 0.00 | 0.00 | 72 | 1014.2 |
| 20260506003010 | 23 | 47 | 0.0 | 4.8 | 0.00 | 0.00 | 0.00 | 71 | 1014.3 |
| 20260506002503 | 23 | 46 | 1.6 | 3.2 | 0.00 | 0.00 | 0.00 | 71 | 1014.3 |
| 20260506002003 | 23 | 9 | 0.0 | 6.4 | 0.00 | 0.00 | 0.00 | 70 | 1014.2 |
| 20260506001508 | 23 | 201 | 3.2 | 6.4 | 0.00 | 0.00 | 0.00 | 69 | 1014.1 |
| 20260506001004 | 23 | 206 | 3.2 | 8.0 | 0.00 | 0.00 | 0.00 | 68 | 1014.2 |
| 20260506000505 | 23 | 109 | 0.0 | 12.9 | 0.00 | 0.00 | 0.00 | 67 | 1014.2 |
| 20260506000013 | 23 | 59 | 3.2 | 17.7 | 0.00 | 0.00 | 0.00 | 66 | 1014.2 |
| 20260505235502 | 24 | 184 | 4.8 | 17.7 | 0.00 | 0.00 | 0.00 | 65 | 1014.1 |
| 20260505235008 | 24 | 178 | 1.6 | 11.3 | 0.00 | 0.00 | 0.00 | 64 | 1014.2 |
| 20260505234510 | 25 | 201 | 3.2 | 9.7 | 0.00 | 0.00 | 0.00 | 64 | 1014.2 |
| 20260505234001 | 25 | 192 | 3.2 | 11.3 | 0.00 | 0.00 | 0.00 | 63 | 1014.1 |
| 20260505233503 | 25 | 194 | 3.2 | 12.9 | 0.00 | 0.00 | 0.00 | 62 | 1014.0 |
| 20260505233009 | 25 | 210 | 4.8 | 12.9 | 0.00 | 0.00 | 0.00 | 61 | 1014.1 |
| 20260505232506 | 25 | 115 | 4.8 | 12.9 | 0.00 | 0.00 | 0.00 | 60 | 1014.2 |
| 20260505232008 | 26 | 207 | 4.8 | 12.9 | 0.00 | 0.00 | 0.00 | 60 | 1014.2 |
| 20260505231511 | 26 | 269 | 1.6 | 14.5 | 0.00 | 0.00 | 0.00 | 59 | 1014.2 |
| 20260505231004 | 26 | 209 | 3.2 | 14.5 | 0.00 | 0.00 | 0.00 | 58 | 1014.2 |
| 20260505230504 | 26 | 164 | 3.2 | 14.5 | 0.00 | 0.00 | 0.00 | 58 | 1014.0 |
| 20260505230010 | 26 | 257 | 6.4 | 14.5 | 0.00 | 0.00 | 0.00 | 57 | 1014.0 |
| 20260505225505 | 26 | 229 | 1.6 | 16.1 | 0.00 | 0.00 | 0.00 | 56 | 1014.0 |
| 20260505225005 | 26 | 208 | 4.8 | 16.1 | 0.00 | 0.00 | 0.00 | 56 | 1014.0 |
| 20260505224512 | 26 | 286 | 4.8 | 16.1 | 0.00 | 0.00 | 0.00 | 55 | 1014.0 |
| 20260505224003 | 27 | 239 | 4.8 | 16.1 | 0.00 | 0.00 | 0.00 | 55 | 1014.0 |
| 20260505223505 | 27 | 182 | 4.8 | 17.7 | 0.00 | 0.00 | 0.00 | 54 | 1013.9 |
| 20260505223013 | 27 | 265 | 4.8 | 17.7 | 0.00 | 0.00 | 0.00 | 53 | 1013.9 |
| 20260505222505 | 27 | 199 | 4.8 | 17.7 | 0.00 | 0.00 | 0.00 | 52 | 1014.0 |
| 20260505222003 | 27 | 205 | 8.0 | 16.1 | 0.00 | 0.00 | 0.00 | 52 | 1013.9 |
| 20260505221512 | 27 | 207 | 1.6 | 9.7 | 0.00 | 0.00 | 0.00 | 54 | 1013.8 |
| 20260505221004 | 27 | 336 | 3.2 | 12.9 | 0.00 | 0.00 | 0.00 | 53 | 1013.8 |
| 20260505220504 | 27 | 174 | 3.2 | 12.9 | 0.00 | 0.00 | 0.00 | 52 | 1013.7 |
| 20260505220012 | 27 | 194 | 4.8 | 14.5 | 0.00 | 0.00 | 0.00 | 52 | 1013.8 |
| 20260505215504 | 27 | 197 | 3.2 | 17.7 | 0.00 | 0.00 | 0.00 | 53 | 1013.8 |
| 20260505215004 | 27 | 147 | 8.0 | 17.7 | 0.00 | 0.00 | 0.00 | 53 | 1013.7 |
| 20260505214508 | 27 | 275 | 8.0 | 19.3 | 0.00 | 0.00 | 0.00 | 54 | 1013.7 |
| 20260505214003 | 27 | 148 | 3.2 | 19.3 | 0.00 | 0.00 | 0.00 | 53 | 1013.7 |
| 20260505213506 | 27 | 181 | 9.7 | 17.7 | 0.00 | 0.00 | 0.00 | 53 | 1013.6 |
| 20260505213021 | 27 | 177 | 6.4 | 22.5 | 0.00 | 0.00 | 0.00 | 53 | 1013.6 |
| 20260505212508 | 27 | 155 | 8.0 | 22.5 | 0.00 | 0.00 | 0.00 | 53 | 1013.7 |
| 20260505212006 | 27 | 178 | 6.4 | 20.9 | 0.00 | 0.00 | 0.00 | 50 | 1013.7 |
| 20260505211512 | 27 | 187 | 9.7 | 20.9 | 0.00 | 0.00 | 0.00 | 52 | 1013.8 |
| 20260505211003 | 27 | 150 | 4.8 | 17.7 | 0.00 | 0.00 | 0.00 | 51 | 1013.9 |
| 20260505210503 | 27 | 191 | 3.2 | 14.5 | 0.00 | 0.00 | 0.00 | 51 | 1013.8 |
| 20260505210014 | 27 | 214 | 4.8 | 19.3 | 0.00 | 0.00 | 0.00 | 52 | 1013.8 |
| 20260505205503 | 27 | 189 | 11.3 | 19.3 | 0.00 | 0.00 | 0.00 | 51 | 1013.8 |
| 20260505205007 | 28 | 205 | 8.0 | 14.5 | 0.00 | 0.00 | 0.00 | 50 | 1013.8 |
| 20260505204515 | 27 | 241 | 4.8 | 9.7 | 0.00 | 0.00 | 0.00 | 51 | 1013.9 |
| 20260505204010 | 27 | 271 | 3.2 | 19.3 | 0.00 | 0.00 | 0.00 | 53 | 1014.0 |
| 20260505203502 | 27 | 80 | 4.8 | 19.3 | 0.00 | 0.00 | 0.00 | 52 | 1014.1 |
| 20260505203025 | 27 | 277 | 6.4 | 20.9 | 0.00 | 0.00 | 0.00 | 50 | 1014.1 |
| 20260505202503 | 27 | 192 | 6.4 | 22.5 | 0.00 | 0.00 | 0.00 | 52 | 1014.1 |
| 20260505202006 | 27 | 260 | 9.7 | 22.5 | 0.00 | 0.00 | 0.00 | 50 | 1014.2 |
| 20260505201517 | 27 | 135 | 1.6 | 16.1 | 0.00 | 0.00 | 0.00 | 52 | 1014.2 |
| 20260505201006 | 27 | 198 | 3.2 | 16.1 | 0.00 | 0.00 | 0.00 | 48 | 1014.3 |
| 20260505200505 | 28 | 246 | 8.0 | 16.1 | 0.00 | 0.00 | 0.00 | 48 | 1014.2 |
| 20260505200014 | 27 | 247 | 4.8 | 17.7 | 0.00 | 0.00 | 0.00 | 50 | 1014.3 |
| 20260505195503 | 28 | 202 | 6.4 | 17.7 | 0.00 | 0.00 | 0.00 | 48 | 1014.4 |
| 20260505195006 | 28 | 186 | 3.2 | 17.7 | 0.00 | 0.00 | 0.00 | 51 | 1014.3 |
| 20260505194515 | 28 | 173 | 4.8 | 17.7 | 0.00 | 0.00 | 0.00 | 51 | 1014.4 |
| 20260505194003 | 28 | 271 | 4.8 | 19.3 | 0.00 | 0.00 | 0.00 | 50 | 1014.5 |
| 20260505193502 | 27 | 279 | 3.2 | 19.3 | 0.00 | 0.00 | 0.00 | 52 | 1014.6 |
| 20260505193016 | 27 | 292 | 3.2 | 11.3 | 0.00 | 0.00 | 0.00 | 52 | 1014.7 |
| 20260505192505 | 27 | 209 | 3.2 | 16.1 | 0.00 | 0.00 | 0.00 | 52 | 1014.8 |
| 20260505192007 | 27 | 288 | 4.8 | 16.1 | 0.00 | 0.00 | 0.00 | 54 | 1014.9 |
| 20260505191514 | 27 | 199 | 8.0 | 14.5 | 0.00 | 0.00 | 0.00 | 53 | 1015.0 |
| 20260505191003 | 27 | 196 | 6.4 | 19.3 | 0.00 | 0.00 | 0.00 | 51 | 1015.1 |
| 20260505190504 | 27 | 252 | 6.4 | 19.3 | 0.00 | 0.00 | 0.00 | 53 | 1015.1 |
| 20260505190026 | 27 | 186 | 9.7 | 14.5 | 0.00 | 0.00 | 0.00 | 52 | 1015.1 |
| 20260505185507 | 27 | 302 | 3.2 | 12.9 | 0.00 | 0.00 | 0.00 | 52 | 1015.2 |
| 20260505185009 | 27 | 217 | 6.4 | 12.9 | 0.00 | 0.00 | 0.00 | 55 | 1015.2 |
| 20260505184516 | 27 | 239 | 3.2 | 16.1 | 0.00 | 0.00 | 0.00 | 53 | 1015.4 |
| 20260505184004 | 27 | 269 | 9.7 | 16.1 | 0.00 | 0.00 | 0.00 | 52 | 1015.5 |
| 20260505183503 | 27 | 181 | 6.4 | 16.1 | 0.00 | 0.00 | 0.00 | 52 | 1015.5 |
| 20260505183016 | 27 | 148 | 4.8 | 20.9 | 0.00 | 0.00 | 0.00 | 55 | 1015.4 |
| 20260505182503 | 26 | 138 | 3.2 | 20.9 | 0.00 | 0.00 | 0.00 | 54 | 1015.5 |
| 20260505182006 | 26 | 190 | 6.4 | 19.3 | 0.00 | 0.00 | 0.00 | 53 | 1015.6 |
| 20260505181514 | 26 | 205 | 3.2 | 12.9 | 0.00 | 0.00 | 0.00 | 55 | 1015.6 |
| 20260505181003 | 26 | 165 | 6.4 | 12.9 | 0.00 | 0.00 | 0.00 | 54 | 1015.7 |
| 20260505180508 | 26 | 172 | 3.2 | 14.5 | 0.00 | 0.00 | 0.00 | 57 | 1015.7 |
| 20260505180015 | 26 | 203 | 4.8 | 14.5 | 0.00 | 0.00 | 0.00 | 57 | 1015.8 |
| 20260505175504 | 26 | 221 | 3.2 | 9.7 | 0.00 | 0.00 | 0.00 | 59 | 1015.8 |
| 20260505175007 | 25 | 246 | 4.8 | 16.1 | 0.00 | 0.00 | 0.00 | 57 | 1015.8 |
| 20260505174518 | 25 | 186 | 6.4 | 16.1 | 0.00 | 0.00 | 0.00 | 56 | 1015.8 |
| 20260505174007 | 25 | 140 | 8.0 | 16.1 | 0.00 | 0.00 | 0.00 | 56 | 1015.8 |
| 20260505173503 | 26 | 167 | 4.8 | 17.7 | 0.00 | 0.00 | 0.00 | 56 | 1015.7 |
| 20260505173029 | 26 | 182 | 4.8 | 17.7 | 0.00 | 0.00 | 0.00 | 56 | 1015.7 |
| 20260505172504 | 26 | 134 | 6.4 | 17.7 | 0.00 | 0.00 | 0.00 | 57 | 1015.8 |
| 20260505172007 | 26 | 257 | 3.2 | 16.1 | 0.00 | 0.00 | 0.00 | 56 | 1015.8 |
| 20260505171527 | 26 | 248 | 4.8 | 16.1 | 0.00 | 0.00 | 0.00 | 58 | 1015.9 |
| 20260505171005 | 25 | 178 | 1.6 | 12.9 | 0.00 | 0.00 | 0.00 | 59 | 1015.9 |
| 20260505170506 | 25 | 158 | 8.0 | 12.9 | 0.00 | 0.00 | 0.00 | 57 | 1015.9 |
| 20260505170021 | 25 | 162 | 3.2 | 11.3 | 0.00 | 0.00 | 0.00 | 58 | 1016.0 |
| 20260505165509 | 25 | 128 | 4.8 | 11.3 | 0.00 | 0.00 | 0.00 | 57 | 1016.1 |
| 20260505165006 | 25 | 205 | 4.8 | 8.0 | 0.00 | 0.00 | 0.00 | 58 | 1016.1 |
| 20260505164520 | 25 | 223 | 3.2 | 14.5 | 0.00 | 0.00 | 0.00 | 58 | 1016.2 |
| 20260505164008 | 25 | 177 | 4.8 | 14.5 | 0.00 | 0.00 | 0.00 | 58 | 1016.4 |
| 20260505163504 | 24 | 187 | 9.7 | 14.5 | 0.00 | 0.00 | 0.00 | 59 | 1016.1 |
| 20260505163019 | 24 | 232 | 3.2 | 14.5 | 0.00 | 0.00 | 0.00 | 58 | 1016.1 |
| 20260505162506 | 24 | 136 | 4.8 | 16.1 | 0.00 | 0.00 | 0.00 | 58 | 1016.2 |
| 20260505162005 | 24 | 189 | 9.7 | 16.1 | 0.00 | 0.00 | 0.00 | 58 | 1016.2 |
| 20260505161519 | 25 | 128 | 9.7 | 16.1 | 0.00 | 0.00 | 0.00 | 59 | 1016.2 |
| 20260505161007 | 24 | 153 | 1.6 | 19.3 | 0.00 | 0.00 | 0.00 | 58 | 1016.2 |
| 20260505160510 | 24 | 227 | 4.8 | 19.3 | 0.00 | 0.00 | 0.00 | 59 | 1016.4 |
| 20260505153005 | 23 | 152 | 3.2 | 16.1 | 0.00 | 0.00 | 0.00 | 61 | 1016.5 |
| 20260505152504 | 23 | 121 | 8.0 | 16.1 | 0.00 | 0.00 | 0.00 | 62 | 1016.5 |
| 20260505152004 | 23 | 57 | 4.8 | 8.0 | 0.00 | 0.00 | 0.00 | 62 | 1016.5 |
| 20260505151509 | 23 | 238 | 3.2 | 4.8 | 0.00 | 0.00 | 0.00 | 60 | 1016.6 |
| 20260505151004 | 22 | 184 | 1.6 | 8.0 | 0.00 | 0.00 | 0.00 | 61 | 1016.7 |
| 20260505150507 | 22 | 107 | 4.8 | 11.3 | 0.00 | 0.00 | 0.00 | 60 | 1016.6 |
| 20260505140503 | 21 | 113 | 9.7 | 17.7 | 0.00 | 0.00 | 0.00 | 68 | 1016.3 |
| 20260505125005 | 15 | 90 | 1.6 | 4.8 | 0.00 | 0.00 | 0.00 | 82 | 1016.2 |
| 20260505124519 | 15 | 49 | 0.0 | 4.8 | 0.00 | 0.00 | 0.00 | 83 | 1016.3 |
| 20260505124005 | 15 | 166 | 0.0 | 0.0 | 0.00 | 0.00 | 0.00 | 84 | 1016.4 |
| 20260505123505 | 13 | 126 | 0.0 | 0.0 | 0.00 | 0.00 | 0.00 | 86 | 1016.4 |
| 20260505123023 | 13 | 139 | 0.0 | 0.0 | 0.00 | 0.00 | 0.00 | 87 | 1016.5 |
| 20260505122507 | 13 | 82 | 0.0 | 0.0 | 0.00 | 0.00 | 0.00 | 90 | 1016.3 |
| 20260505122011 | 12 | 139 | 0.0 | 0.0 | 0.00 | 0.00 | 0.00 | 90 | 1016.2 |
| 20260505121503 | 12 | 120 | 0.0 | 0.0 | 0.00 | 0.00 | 0.00 | 92 | 1016.2 |
| 20260505121003 | 11 | 345 | 0.0 | 0.0 | 0.00 | 0.00 | 0.00 | 93 | 1016.2 |
| 20260505120503 | 11 | 352 | 0.0 | 1.6 | 0.00 | 0.00 | 0.00 | 93 | 1016.1 |
| 20260505120033 | 11 | 352 | 0.0 | 1.6 | 0.00 | 0.00 | 0.00 | 92 | 1016.1 |
| 20260505115502 | 11 | 176 | 0.0 | 1.6 | 0.00 | 0.00 | 0.00 | 93 | 1015.9 |
| 20260505115003 | 10 | 25 | 0.0 | 0.0 | 0.00 | 0.00 | 0.00 | 93 | 1015.9 |
| 20260505114515 | 10 | 334 | 0.0 | 0.0 | 0.00 | 0.00 | 0.00 | 93 | 1015.8 |
| 20260505114004 | 10 | 9 | 0.0 | 1.6 | 0.00 | 0.00 | 0.00 | 94 | 1015.8 |
| 20260505113506 | 10 | 304 | 0.0 | 1.6 | 0.00 | 0.00 | 0.00 | 93 | 1015.7 |
| 20260505113020 | 10 | 304 | 0.0 | 1.6 | 0.00 | 0.00 | 0.00 | 94 | 1015.7 |
| 20260505112506 | 10 | 315 | 0.0 | 0.0 | 0.00 | 0.00 | 0.00 | 94 | 1015.7 |
| 20260505112007 | 10 | 87 | 0.0 | 0.0 | 0.00 | 0.00 | 0.00 | 95 | 1015.6 |
| 20260505111526 | 10 | 84 | 0.0 | 0.0 | 0.00 | 0.00 | 0.00 | 95 | 1015.5 |
| 20260505111009 | 9 | 94 | 0.0 | 0.0 | 0.00 | 0.00 | 0.00 | 95 | 1015.5 |
| 20260505110502 | 9 | 97 | 0.0 | 0.0 | 0.00 | 0.00 | 0.00 | 95 | 1015.4 |
| 20260505102010 | 8 | 74 | 0.0 | 0.0 | 0.00 | 0.00 | 0.00 | 95 | 1015.2 |
| 20260505101526 | 8 | 113 | 0.0 | 0.0 | 0.00 | 0.00 | 0.00 | 94 | 1015.1 |
| 20260505101010 | 8 | 113 | 0.0 | 0.0 | 0.00 | 0.00 | 0.00 | 94 | 1015.3 |
| 20260505100508 | 8 | 113 | 0.0 | 0.0 | 0.00 | 0.00 | 0.00 | 94 | 1015.1 |
| 20260505100028 | 8 | 113 | 0.0 | 0.0 | 0.00 | 0.00 | 0.00 | 94 | 1015.1 |
| 20260505095504 | 8 | 113 | 0.0 | 0.0 | 0.00 | 0.00 | 0.00 | 94 | 1015.1 |
| 20260505095003 | 8 | 113 | 0.0 | 0.0 | 0.00 | 0.00 | 0.00 | 94 | 1015.0 |
| 20260505094511 | 8 | 113 | 0.0 | 0.0 | 0.00 | 0.00 | 0.00 | 94 | 1015.0 |
| 20260505094003 | 8 | 113 | 0.0 | 0.0 | 0.00 | 0.00 | 0.00 | 95 | 1015.1 |
| 20260505093503 | 8 | 113 | 0.0 | 0.0 | 0.00 | 0.00 | 0.00 | 95 | 1015.0 |
| 20260505093017 | 8 | 113 | 0.0 | 0.0 | 0.00 | 0.00 | 0.00 | 94 | 1015.0 |
| 20260505092504 | 8 | 113 | 0.0 | 0.0 | 0.00 | 0.00 | 0.00 | 93 | 1014.7 |
| 20260505092007 | 8 | 113 | 0.0 | 0.0 | 0.00 | 0.00 | 0.00 | 93 | 1014.6 |
| 20260505091527 | 9 | 113 | 0.0 | 0.0 | 0.00 | 0.00 | 0.00 | 93 | 1014.4 |
| 20260505091009 | 9 | 113 | 0.0 | 0.0 | 0.00 | 0.00 | 0.00 | 94 | 1014.4 |
| 20260505090507 | 9 | 113 | 0.0 | 0.0 | 0.00 | 0.00 | 0.00 | 94 | 1014.3 |
| 20260505090039 | 9 | 113 | 0.0 | 0.0 | 0.00 | 0.00 | 0.00 | 96 | 1014.4 |
| 20260505085512 | 9 | 113 | 0.0 | 0.0 | 0.00 | 0.00 | 0.00 | 95 | 1014.3 |
| 20260505085008 | 8 | 113 | 0.0 | 0.0 | 0.00 | 0.00 | 0.00 | 94 | 1014.2 |
| 20260505084512 | 8 | 113 | 0.0 | 0.0 | 0.00 | 0.00 | 0.00 | 94 | 1014.2 |
| 20260505084004 | 8 | 113 | 0.0 | 0.0 | 0.00 | 0.00 | 0.00 | 93 | 1014.3 |
| 20260505083507 | 8 | 113 | 0.0 | 0.0 | 0.00 | 0.00 | 0.00 | 93 | 1014.2 |
| 20260505083017 | 8 | 180 | 0.0 | 0.0 | 0.00 | 0.00 | 0.00 | 93 | 1014.3 |
| 20260505082504 | 9 | 180 | 0.0 | 0.0 | 0.00 | 0.00 | 0.00 | 94 | 1014.3 |
| 20260505082007 | 9 | 180 | 0.0 | 0.0 | 0.00 | 0.00 | 0.00 | 94 | 1014.2 |
| 20260505081521 | 8 | 180 | 0.0 | 0.0 | 0.00 | 0.00 | 0.00 | 94 | 1014.3 |
| 20260505081007 | 8 | 180 | 0.0 | 0.0 | 0.00 | 0.00 | 0.00 | 93 | 1014.4 |
| 20260505080507 | 9 | 180 | 0.0 | 0.0 | 0.00 | 0.00 | 0.00 | 93 | 1014.3 |
| 20260505080023 | 9 | 180 | 0.0 | 0.0 | 0.00 | 0.00 | 0.00 | 93 | 1014.2 |
| 20260505075509 | 9 | 180 | 0.0 | 0.0 | 0.00 | 0.00 | 0.00 | 93 | 1014.2 |
| 20260505075006 | 9 | 180 | 0.0 | 0.0 | 0.00 | 0.00 | 0.00 | 94 | 1014.3 |
| 20260505074528 | 9 | 180 | 0.0 | 0.0 | 0.00 | 0.00 | 0.00 | 93 | 1014.2 |
| 20260505074011 | 9 | 180 | 0.0 | 0.0 | 0.00 | 0.00 | 0.00 | 93 | 1014.4 |
| 20260505073505 | 9 | 180 | 0.0 | 0.0 | 0.00 | 0.00 | 0.00 | 93 | 1014.5 |
| 20260505073024 | 9 | 180 | 0.0 | 0.0 | 0.00 | 0.00 | 0.00 | 93 | 1014.5 |
| 20260505072505 | 9 | 180 | 0.0 | 0.0 | 0.00 | 0.00 | 0.00 | 93 | 1014.4 |
| 20260505072005 | 9 | 180 | 0.0 | 0.0 | 0.00 | 0.00 | 0.00 | 93 | 1014.3 |
| 20260505071519 | 9 | 180 | 0.0 | 0.0 | 0.00 | 0.00 | 0.00 | 93 | 1014.4 |
| 20260505071006 | 9 | 180 | 0.0 | 0.0 | 0.00 | 0.00 | 0.00 | 92 | 1014.4 |
| 20260505070510 | 9 | 180 | 0.0 | 0.0 | 0.00 | 0.00 | 0.00 | 92 | 1014.4 |
| 20260505070024 | 9 | 180 | 0.0 | 0.0 | 0.00 | 0.00 | 0.00 | 92 | 1014.5 |
| 20260505065508 | 10 | 180 | 0.0 | 0.0 | 0.00 | 0.00 | 0.00 | 91 | 1014.4 |
| 20260505065008 | 10 | 180 | 0.0 | 0.0 | 0.00 | 0.00 | 0.00 | 91 | 1014.5 |
| 20260505064537 | 10 | 180 | 0.0 | 0.0 | 0.00 | 0.00 | 0.00 | 91 | 1014.6 |
| 20260505064008 | 10 | 180 | 0.0 | 0.0 | 0.00 | 0.00 | 0.00 | 91 | 1014.7 |
| 20260505063509 | 10 | 180 | 0.0 | 0.0 | 0.00 | 0.00 | 0.00 | 91 | 1014.7 |
| 20260505063029 | 10 | 180 | 0.0 | 0.0 | 0.00 | 0.00 | 0.00 | 91 | 1014.6 |
| 20260505062504 | 10 | 180 | 0.0 | 0.0 | 0.00 | 0.00 | 0.00 | 90 | 1014.8 |
| 20260505062011 | 10 | 180 | 0.0 | 0.0 | 0.00 | 0.00 | 0.00 | 91 | 1014.9 |
| 20260505061530 | 10 | 180 | 0.0 | 0.0 | 0.00 | 0.00 | 0.00 | 91 | 1014.7 |
| 20260505061004 | 10 | 180 | 0.0 | 0.0 | 0.00 | 0.00 | 0.00 | 91 | 1014.9 |
| 20260505060507 | 10 | 180 | 0.0 | 0.0 | 0.00 | 0.00 | 0.00 | 90 | 1015.0 |
| 20260505060023 | 10 | 180 | 0.0 | 0.0 | 0.00 | 0.00 | 0.00 | 89 | 1014.8 |
| 20260505055512 | 10 | 180 | 0.0 | 0.0 | 0.00 | 0.00 | 0.00 | 90 | 1014.9 |
| 20260505055010 | 10 | 180 | 0.0 | 0.0 | 0.00 | 0.00 | 0.00 | 89 | 1014.9 |
| 20260505054539 | 11 | 180 | 0.0 | 0.0 | 0.00 | 0.00 | 0.00 | 88 | 1015.0 |
| 20260505054007 | 11 | 180 | 0.0 | 0.0 | 0.00 | 0.00 | 0.00 | 88 | 1015.1 |
| 20260505053507 | 11 | 180 | 0.0 | 0.0 | 0.00 | 0.00 | 0.00 | 88 | 1015.1 |
| 20260505053010 | 11 | 180 | 0.0 | 0.0 | 0.00 | 0.00 | 0.00 | 88 | 1015.2 |